STARLINK-38227, 100193

Orbit data source: Space-Track

STARLINK-38227, 100193 is a payload satellite owned by SpaceX/Seattle (US) in SSO that was launched on Sat, 01 Aug 2026 UTC launched from the Air Force Western Test Range (AFWTR). Payload-class satellites include a variety of spacecraft equipped with specific instruments for various scientific and technological missions. These include communications satellites like Starlink; space stations such as the ISS; scientific satellites like the Hubble; Earth observation satellites from companies like Planet Labs, Umbra, and HawkEye 360; GPS; miniature CubeSats for education and research; and military/defense satellites.

Not visible in the next 10 days
Identifier
100193, 2026-175Q
Orbit
SSO
Country
Flag of USUS
Related business
Manufacturer
SpaceX/Seattle
Mission
Operational spacecraft
Bus & Motor
STARLINK V2MO, Unknown motor
Mass
575 kg wet, ~530 kg dry
Launch date (UTC)
2026-08-01 (2 months ago)
Launch vehicle
Unknown
Launch site
Air Force Western Test Range (AFWTR)
Object type
Payload
Rocket body
Debris
Shape & HBR
BOX + PAN, 17.7 m
Radar Cross Section
Large (>1 m²)

Expand to show TLE details & history
Last TLE update: 7 hours ago

TLE from 7 hours ago
0 STARLINK-38227
1 A0193U 26175Q   26263.96227406 -.00954703  00000-0 -94922-2 0  9997
2 A0193  97.2843 106.4927 0001938  79.7337 280.4143 15.68084928  9253
Epoch: 2026-09-20T23:05Z
TLE epoch observation values (Epoch: 2026-09-20T23:05:40.478Z)
Latitude
-0.00003°
Longitude
120.22511°
Altitude
367.304 km
Speed
7.689 km/s
True Right ascension
07h 05m 58s
True Declination
0° 00' 00"
Sunlit
Object was in daylight at epoch
Visualization orbit readout
Latitude
Unknown
Longitude
Unknown
Altitude
Unknown
Speed
Unknown
Apparent Right ascension
Unknown
Apparent Declination
Unknown
Sunlit
N/A
Visualization observer readout
Local Sidereal Time
23:14:30
Azimuth
Unknown
Elevation
Unknown
Doppler factor
Unknown
Orbital elements
Apogee altitude
362.584 km
Perigee altitude
359.972 km
Semi-major axis
6,739.415 km
Eccentricity
0.00019
Inclination
97.2843°
RAAN
106.4927°
Arg. of periapsis
79.7337°
True anomaly
280.39246°
Mean anomaly
280.4143°
Eccentric anomaly
280.40338°
Mean motion
3.92292 °/min
Orbital period
91.77 mins
BSTAR
-0.0094922
Loading maneuver chart data...
Computing Atmospheric mass density...
Loading historical data...
Loading historical data...
Loading historical data...
Loading historical data...
Loading historical data...
Loading historical data...
Loading historical data...

Documentation

Showing up to 5 results
|